Regional Weather Roundup
Issued by NWS

Home | Current Version | Previous Version | Graphics & Text | Print | Product List | Glossary On
Versions: 1 2 3 4 5 6 7 8 9 10 11 12 13 14 15 16 17 18 19 20 21 22 23 24 25 26 27 28 29 30 31 32 33 34 35 36 37 38 39 40 41 42 43 44 45 46 47 48 49 50
000
ASUS43 KDMX 280607
RWRIA

WEATHER ROUNDUP FOR IOWA
NATIONAL WEATHER SERVICE DES MOINES IA
1200 AM CST WED JAN 28 2015

NOTE: "FAIR" INDICATES FEW OR NO CLOUDS BELOW 12,000 FEET WITH NO
SIGNIFICANT WEATHER AND/OR OBSTRUCTIONS TO VISIBILITY.

* - THESE STATIONS ARE NOT NWS STATIONS...THUS NOT UNDER NWS
QUALITY CONTROL.  THEY ALSO DO NOT REPORT WEATHER SUCH
AS PRECIPITATION OR FOG.

IAZ001>003-012>014-020>022-031>034-043>046-280700-
   NORTHWEST IOWA

CITY           SKY/WX    TMP DP  RH WIND       PRES   REMARKS
CARROLL *      CLEAR     30  30 100 SE13      30.05S WCI  20
CHEROKEE *     CLEAR     32  32  97 SE8       30.01S WCI  25
DENISON *      CLEAR     36  32  87 SE6       29.99F WCI  31
LE MARS *        N/A    N/A N/A N/A SE9       29.97F
ORANGE CITY *  CLEAR     36  30  80 SE8       29.97S WCI  29
SHELDON *      CLEAR     34  34 100 SE16G23   29.97F WCI  23
SIOUX CITY     CLEAR     34  29  82 SE9       29.97S WCI  27
6HR MIN TEMP:  32; 6HR MAX TEMP:  42;

SPENCER        CLEAR     32  29  88 SE15      30.01F WCI  22
6HR MIN TEMP:  32; 6HR MAX TEMP:  37;

STORM LAKE *   CLEAR     32  30  93 SE15      30.01F WCI  22
$$

IAZ055>058-069>071-079>083-090>094-280700-
   SOUTHWEST IOWA

CITY           SKY/WX    TMP DP  RH WIND       PRES   REMARKS
ATLANTIC *     CLEAR     36  32  87 S6        30.03S WCI  31
AUDUBON *      CLEAR     34  28  80 SE6       30.04F WCI  29
CLARINDA *     CLEAR     37  32  81 SE7       30.05F WCI  32
COUNCIL BLFS * CLEAR     36  32  87 SE13      29.99S WCI  27
CRESTON *      CLEAR     32  30  93 SE13      30.06F WCI  22
HARLAN  *      CLEAR     36  36 100 SE8       30.05S WCI  29
LAMONI         CLEAR     33  29  85 SE8       30.09S WCI  26
6HR MIN TEMP:  33; 6HR MAX TEMP:  42;

RED OAK *      CLEAR     37  32  81 SE8G14    30.03S WCI  31
SHENANDOAH *   CLEAR     37  32  81 SE8       30.03S WCI  31
$$

IAZ047>049-059>061-072>074-084-280700-
   CENTRAL IOWA

CITY           SKY/WX    TMP DP  RH WIND       PRES   REMARKS
AMES           CLOUDY    29  26  89 SE14      30.12S WCI  18
6HR MIN TEMP:  29; 6HR MAX TEMP:  35;

ANKENY *       CLOUDY    28  28 100 SE10      30.13R WCI  19
CHARITON *     PTCLDY    30  28  93 SE10      30.12S FOG     WCI  21
DES MOINES     PTCLDY    30  26  85 SE13      30.12F WCI  20
6HR MIN TEMP:  30; 6HR MAX TEMP:  39;

GRINNELL*      CLOUDY    28  27  93 SE10      30.16F FOG     WCI  19
KNOXVILLE *    MOCLDY    28  27  93 SE13      30.12F WCI  18
MARSHALLTOWN   CLOUDY    29  26  89 SE14      30.14F WCI  18
6HR MIN TEMP:  29; 6HR MAX TEMP:  32;

PELLA *        CLOUDY    29  28  93 SE13      30.16F FOG     WCI  19
PERRY *          N/A     31  30  96 SE12      30.09S WCI  21
$$

IAZ004>006-015-016-023>025-035-036-280700-
   NORTH CENTRAL IOWA

CITY           SKY/WX    TMP DP  RH WIND       PRES   REMARKS
ALGONA *       CLOUDY    30  30 100 SE14G21   30.07F WCI  20
CLARION *      CLOUDY    30  30 100 SE17G23   30.10S FOG     WCI  18
ESTHERVILLE    CLOUDY    30  29  96 S20       30.03F WCI  17
6HR MIN TEMP:  30; 6HR MAX TEMP:  33;

FORT DODGE *   PTCLDY    28  25  86 SE8       30.08F WCI  20
MASON CITY     CLOUDY    29  26  89 SE15      30.13F WCI  18
6HR MIN TEMP:  29; 6HR MAX TEMP:  32; 6HR PCP: TRACE;

FOREST CITY *  CLOUDY    32  30  93 SE14      30.10S FOG     WCI  22
IOWA FALLS *   CLOUDY    30  28  93 SE13      30.13F FOG     WCI  20
$$

IAZ007>011-017>019-026>030-037>042-050>054-066-280700-
   NORTHEAST IOWA

CITY           SKY/WX    TMP DP  RH WIND       PRES   REMARKS
CEDAR RAPIDS   CLOUDY    27  24  89 SE12      30.19S FOG     WCI  17
6HR MIN TEMP:  27; 6HR MAX TEMP:  30;

CHARLES CITY * CLOUDY    28  28 100 S12       30.16S WCI  18
CLINTON *      CLOUDY    27  23  86 S5        30.27S WCI  21
DECORAH *      CLOUDY    27  23  86 S8G16     30.17R WCI  18
DUBUQUE        CLOUDY    25  22  88 S14       30.21S FOG     WCI  13
6HR MIN TEMP:  25; 6HR MAX TEMP:  26;

MONTICELLO *   CLOUDY    27  25  93 SE10      30.21F WCI  17
OELWEIN *      CLOUDY    27  25  93 S13       30.18R WCI  16
WATERLOO       CLOUDY    28  25  88 SE9       30.18R WCI  19
6HR MIN TEMP:  28; 6HR MAX TEMP:  31;

$$

IAZ064-065-067-068-078-280700-
   EAST CENTRAL IOWA

CITY           SKY/WX    TMP DP  RH WIND       PRES   REMARKS
DAVENPORT      CLOUDY    26  21  81 S8        30.24F WCI  18
6HR MIN TEMP:  26; 6HR MAX TEMP:  27;

IOWA CITY      CLOUDY    27  24  89 SE10      30.23F WCI  17
6HR MIN TEMP:  27; 6HR MAX TEMP:  30;

MT. PLEASANT * CLOUDY    28  26  91 SE8       30.22F FOG     WCI  20
MUSCATINE *    CLOUDY    28  25  86 SE8       30.24F WCI  20
QUAD CITIES    CLOUDY    27  22  81 S6        30.24F WCI  20
6HR MIN TEMP:  27; 6HR MAX TEMP:  28;

$$

IAZ062-063-075>077-085>089-095>099-280700-
   SOUTHEAST IOWA

CITY           SKY/WX    TMP DP  RH WIND       PRES   REMARKS
BURLINGTON     CLOUDY    29  26  89 SE9       30.22S WCI  20
6HR MIN TEMP:  29; 6HR MAX TEMP:  30;

FAIRFIELD *    CLOUDY    28  27  93 SE13      30.20S WCI  18
FORT MADISON * CLOUDY    28  27  93 SE6       30.22F FOG     WCI  22
KEOKUK *       CLOUDY    30  28  93 SE8       30.22S WCI  23
OSKALOOSA *    CLOUDY    29  28  93 SE16      30.18F FOG     WCI  18
CENTERVILLE *  PTCLDY    28  28 100 SE12      30.15F WCI  18
OTTUMWA        CLOUDY    29  27  92 SE10      30.17F FOG     WCI  20
6HR MIN TEMP:  28; 6HR MAX TEMP:  32;

WASHINGTON *   CLOUDY    28  28 100 SE12      30.22S WCI  18
$$

ABBREVIATIONS USED IN REMARKS
   TC - TEMPERATURES IN CELSIUS
  WCI - WIND CHILL INDEX
   HX - HEAT INDEX
  VSB - VISIBILITY
$$




USA.gov is the U.S. government's official web portal to all federal, state and local government web resources and services.